Regional Weather Roundup
Issued by NWS

Home | Current Version | Previous Version | Text Only | Print | Product List | Glossary On
Versions: 1 2 3 4 5 6 7 8 9 10 11 12 13 14 15 16 17 18 19 20 21 22 23 24 25 26 27 28 29 30 31 32 33 34 35 36 37 38 39 40 41 42 43 44 45 46 47 48 49 50
000
ASUS45 KCYS 241210
RWRWY

WYOMING REGIONAL WEATHER ROUNDUP
NATIONAL WEATHER SERVICE CHEYENNE WY
500 AM MST SAT FEB 24 2018

NOTE:  "FAIR" INDICATES FEW OR NO CLOUDS BELOW 12,000 FEET
WITH NO SIGNIFICANT WEATHER AND/OR OBSTRUCTIONS TO VISIBILITY.

WYZ001-241300-
YELLOWSTONE NATIONAL PARK

CITY           SKY/WX    TMP DP  RH WIND       PRES   REMARKS
LK YELLOWSTONE   N/A      3  -3  76 VRB3      29.80F
6HR MIN TEMP:  -9; 6HR MAX TEMP:   3;

W YELLOWSTONE  NOT AVBL

$$
WYZ002>013-054>058-071-098>099-241300-
NORTHERN WYOMING

CITY           SKY/WX    TMP DP  RH WIND       PRES   REMARKS
JACKSON        NOT AVBL
CODY           FAIR      20   2  45 W18G31    29.75F WCI   5
GREYBULL       CLOUDY   -11 -14  86 CALM      29.84S
6HR MIN TEMP: -15; 6HR MAX TEMP:  -7;

WORLAND        FAIR      -8 -11  86 VRB5      29.82S WCI -19
6HR MIN TEMP: -12; 6HR MAX TEMP:  -1;

SHERIDAN       FAIR       0  -6  76 CALM      29.75S
6HR MIN TEMP:  -6; 6HR MAX TEMP:  25;

BUFFALO        FAIR      12  -3  51 N3        29.70S
6HR MIN TEMP:   8; 6HR MAX TEMP:  21;

GILLETTE       FAIR       0  -4  83 CALM      29.73S
6HR MIN TEMP:   0; 6HR MAX TEMP:  19;

HULETT         FAIR      21  14  73 MISG      29.73F
NEWCASTLE      FAIR      14  10  85 SE7       29.77S WCI   4

$$
WYZ014>020-022>026-101>103-241300-
CENTRAL WYOMING

CITY           SKY/WX    TMP DP  RH WIND       PRES   REMARKS
BIG PINEY      FAIR      -5 -10  79 S5        29.88F WCI -16
6HR MIN TEMP:  -9; 6HR MAX TEMP:   5;

PINEDALE       FAIR       0  -6  78 NW6       29.87F WCI -12
DUBOIS           N/A    N/A N/A N/A MISG        N/A
LANDER         MOCLDY    -1  -6  79 E7        29.76F WCI -14
6HR MIN TEMP:  -2; 6HR MAX TEMP:  10;

RIVERTON       FAIR      13  -3  49 NW20      29.76F WCI  -5
6HR MIN TEMP:   1; 6HR MAX TEMP:  13;

CASPER         FAIR       6   3  87 SW14      29.77F WCI -11
6HR MIN TEMP:   3; 6HR MAX TEMP:  17; 6HR PCP: TRACE;

DOUGLAS        FOG       -3  -6  87 W9        29.76F VSB 3/4 WCI -19
6HR MIN TEMP:  -5; 6HR MAX TEMP:  15;


$$
WYZ021-027>030-104>119-241300-
SOUTHERN WYOMING

CITY           SKY/WX    TMP DP  RH WIND       PRES   REMARKS
EVANSTON       MOCLDY     5   2  87 SW8       29.95F WCI  -8
6HR MIN TEMP:   0; 6HR MAX TEMP:   7; 6HR PCP: TRACE;

ROCK SPRINGS   FAIR       4  -2  76 SW21      29.90S WCI -17
6HR MIN TEMP:   4; 6HR MAX TEMP:  14;

DIXON          PTSUNNY    6   0  73 W3        29.96R
RAWLINS        FAIR       6  -2  69 W21       29.84R WCI -14
6HR MIN TEMP:   6; 6HR MAX TEMP:  13;

SARATOGA       FAIR       9   0  66 SW9       29.83S WCI  -5
LARAMIE        FAIR       7  -3  64 W10       29.72F WCI  -8
6HR MIN TEMP:   5; 6HR MAX TEMP:  18;

CHEYENNE       FAIR      18   9  68 W13       29.73F WCI   5
6HR MIN TEMP:  14; 6HR MAX TEMP:  22; 6HR PCP: TRACE;

TORRINGTON     FAIR      15  15 100 E5        29.78S FOG     WCI   8
6HR MIN TEMP:  15; 6HR MAX TEMP:  20; 6HR PCP: TRACE;

PINE BLUFFS    PTSUNNY   21  21 100 W7        29.78S WCI  13

$$



USA.gov is the U.S. government's official web portal to all federal, state and local government web resources and services.